sat.trackr.live / text

‹ back to catalog

CAPELLA-19 (ACADIA-9)

NORAD 67384 · 2026-004X

PAYLOAD ACTIVE UNKNOWN

§ Identity

Operator
Country
US
Launch date
2026-01-11
Launch site
AFWTR
Launch vehicle
Mass (kg)
RCS (m²)

External: N2YO · Heavens-Above · Gunter

§ Orbital elements

Epoch: 2026-09-20T13:45:02.033280Z

Period
96.86 min
Inclination
97.8028°
Eccentricity
0.0001604
Mean motion
14.86652252 rev/d
Perigee alt
607.3 km
Apogee alt
609.5 km
Semi-major
6,986.5 km
B*
2.3582e-4
RAAN
260.2431°
Arg perigee
93.2556°
Mean anomaly
266.8843°
Rev number
3,744

§ Raw data

CAPELLA-19 (ACADIA-9)1 67384U 26004X   26263.57294020  .00002040  00000+0  23582-3 0  99962 67384  97.8028 260.2431 0001604  93.2556 266.8843 14.86652252 37449

JSON: /api/v1/satellites/67384 · /tle

For live sub-satellite position, see the globe view (requires WebGL).

§ Visibility from observer

Set your observer location to see the next 7 days of passes ≥ 10°. The values pass through the URL so the page stays shareable.

No JS? Fill the form by hand. The geolocation button needs JavaScript.